Regional Weather Roundup
Issued by NWS Little Rock, AR

Home | Current Version | Previous Version | Graphics & Text | Print | Product List | Glossary On
Versions: 1 2 3 4 5 6 7 8 9 10 11 12 13 14 15 16 17 18 19 20 21 22 23 24 25 26 27 28 29 30 31 32 33 34 35 36 37 38 39 40 41 42 43 44 45 46 47 48 49 50
805
ASUS44 KLZK 310205
RWRLZK

WEATHER ROUNDUP FOR ARKANSAS
NATIONAL WEATHER SERVICE LITTLE ROCK AR
900 PM CDT SAT JUL 30 2016

NOTE: "FAIR" INDICATES FEW OR NO CLOUDS BELOW 12,000 FEET WITH NO
SIGNIFICANT WEATHER AND/OR OBSTRUCTIONS TO VISIBILITY.

ARZ001-003-010-029-310300-
NORTHWEST ARKANSAS

CITY           SKY/WX    TMP DP  RH WIND       PRES   REMARKS
FAYETTEVILLE   CLOUDY    75  73  93 SW6       29.98R
FORT SMITH     PTCLDY    79  67  66 E6        29.95R
HARRISON       CLOUDY    71  69  93 CALM      29.99S
BENTONVILLE    CLOUDY    73  66  78 CALM      29.99S
ROGERS         CLOUDY    73  70  90 NE3       29.99S
SILOAM SPGS    CLOUDY    73  64  73 E5        29.99R
HIGHFILL       CLOUDY    74  72  93 CALM      29.98S
SPRINGDALE     CLEAR     75  73  94 S3        30.00R
$$

ARZ004-005-016-310300-
NORTH CENTRAL ARKANSAS

CITY           SKY/WX    TMP DP  RH WIND       PRES   REMARKS
BATESVILLE     CLOUDY    75  72  88 CALM      29.94R
FLIPPIN        CLOUDY    73  66  78 CALM      29.94S
MTN HOME       MOCLDY    72  71  97 W5        29.96F
$$

ARZ040-041-310300-
WEST CENTRAL ARKANSAS

CITY           SKY/WX    TMP DP  RH WIND       PRES   REMARKS
MENA             N/A    N/A N/A N/A MISG        N/A
MOUNT IDA      MOCLDY    73  72  96 SE5       29.98R
$$

ARZ009-017-025-026-028-310300-
NORTHEAST ARKANSAS

CITY           SKY/WX    TMP DP  RH WIND       PRES   REMARKS
CORNING          N/A     81  77  89 S3        29.93S HX  88
JONESBORO      CLOUDY    82  74  76 S6        29.93R HX  88
NEWPORT        CLOUDY    76  73  90 S9        29.95S
WALNUT RIDGE   CLOUDY    81  73  78 SE5       29.92R HX  85
BLYTHEVILLE    MOCLDY    81  74  79 SE3       29.93F HX  86
$$

ARZ022-023-033-042-044-310300-
CENTRAL ARKANSAS

CITY           SKY/WX    TMP DP  RH WIND       PRES   REMARKS
LITTLE ROCK    CLOUDY    74  71  91 S7        29.99R
N LITTLE ROCK    N/A     72  70  95 CALM      29.97R
JACKSONVILLE   CLOUDY    73  73 100 S5        29.98R
SEARCY         CLOUDY    72  72 100 CALM      29.90R
HOT SPRINGS    CLOUDY    74  73  97 E5        30.00R
RUSSELLVILLE   CLOUDY    73  71  93 CALM      29.97R
$$

ARZ036-310300-
EAST ARKANSAS

CITY           SKY/WX    TMP DP  RH WIND       PRES   REMARKS
WEST MEMPHIS   CLOUDY    79  76  90 S6        29.94R
$$

ARZ050-053-066-070-073-310300-
SOUTHWEST ARKANSAS

CITY           SKY/WX    TMP DP  RH WIND       PRES   REMARKS
ARKADELPHIA    MOCLDY    73  72  96 S8        30.01R
CAMDEN         CLOUDY    72  68  88 SE5       30.00S
TEXARKANA      CLOUDY    75  70  84 CALM      29.97S
EL DORADO      CLOUDY    73  72  96 E7        30.02R
DE QUEEN       PTCLDY    73  71  93 E5        29.95R
$$

ARZ056-057-069-310300-
SOUTHEAST ARKANSAS

CITY           SKY/WX    TMP DP  RH WIND       PRES   REMARKS
PINE BLUFF     LGT RAIN  72  70  93 SE12      30.01R
STUTTGART      CLOUDY    73  66  78 S16       29.98R
MONTICELLO     TSTM      73  71  93 SE6       30.03F

$$






USA.gov is the U.S. government's official web portal to all federal, state and local government web resources and services.